Regional Weather Roundup
Issued by NWS Cleveland, OH

Home | Current Version | Previous Version | Text Only | Print | Product List | Glossary Off
Versions: 1 2 3 4 5 6 7 8 9 10 11 12 13 14 15 16 17 18 19 20 21 22 23 24 25 26 27 28 29 30 31 32 33 34 35 36 37 38 39 40 41 42 43 44 45 46 47 48 49 50

000
ASUS41 KCLE 052102
RWRCLE
OHIO REGIONAL WEATHER ROUNDUP
NATIONAL WEATHER SERVICE CLEVELAND, OH
400 PM EST MON DEC 05 2016

NOTE: "FAIR" INDICATES FEW OR NO CLOUDS BELOW 12,000 FEET WITH NO
SIGNIFICANT WEATHER AND/OR OBSTRUCTIONS TO VISIBILITY.

OHZ001>008-015>018-024>027-034-035-043-044-052200-
   NORTHWEST OHIO

CITY           SKY/WX    TMP DP  RH WIND       PRES   REMARKS
DEFIANCE       CLOUDY    37  28  70 SW7       30.08F
FINDLAY        CLOUDY    38  29  70 S7        30.07F
TOLEDO EXPRESS CLOUDY    36  30  79 SW8       30.09R
TOLEDO EXEC    CLOUDY    38  30  73 SW9       30.10R
LIMA           MOCLDY    36  31  82 S3        30.06F
$$

OHZ009>014-019>023-028>033-038-089-052200-
   NORTHEAST OHIO

CITY           SKY/WX    TMP DP  RH WIND       PRES   REMARKS
CLE-HOPKINS    CLOUDY    39  28  64 SW7       30.12R
CLE-LAKEFRONT  CLOUDY    39  28  64 SW10      30.09R
CUY CO. ARPT   CLOUDY    39  32  75 SW14      30.10R
LORAIN-ELYRIA  CLOUDY    37  29  72 W12       30.10R
ASHTABULA      CLOUDY    39  32  76 W9        30.09R
AKRON-CANTON   CLOUDY    39  28  64 SW6       30.08S
WOOSTER        CLOUDY    37  28  70 W6        30.09S
MANSFIELD      CLOUDY    37  29  72 S6        30.07F
YOUNGSTOWN     CLOUDY    39  28  64 W7        30.08R
$$

OHZ042-051>053-060>062-070>072-077>081-052200-
  SOUTHWEST OHIO

CITY           SKY/WX    TMP DP  RH WIND       PRES   REMARKS
CINC-COVINGTON CLOUDY    43  33  68 E8        30.02S
CINC-LUNKEN    MOSUNNY   45  35  68 NE5       30.05S
HAMILTON       CLOUDY    44  32  62 E8        30.05F
DAYTON         CLOUDY    40  31  70 E7        30.05S
WRIGHT-PAT AFB CLOUDY    42  33  72 NE7       30.04F
DAYTON GENERAL MOSUNNY   42  31  64 NE8       30.03S
WILMINGTON     MOSUNNY   41  33  73 NE8       30.03F
$$

OHZ036-037-039>041-045>050-054>059-063>069-073>076-082>088-052200-
  CENTRAL AND SOUTHEAST OHIO

CITY           SKY/WX    TMP DP  RH WIND       PRES   REMARKS
COLUMBUS       CLOUDY    40  32  73 CALM      30.07F
OSU AIRPORT    CLOUDY    39  31  72 N3        30.06F
BOLTON FIELD   CLEAR     39  30  70 CALM      30.06F
RICKENBACK AFB CLOUDY    39  31  72 CALM      30.06S
NEWARK         CLOUDY    40  30  67 MISG      30.07S
MARION         CLOUDY    38  29  70 CALM      30.08F
LANCASTER      CLOUDY    41  33  73 N3        30.07F
ZANESVILLE     CLOUDY    42  29  59 CALM      30.07F
NEW PHILLY     CLOUDY    39  29  67 SW5       30.10F
$$




USA.gov is the U.S. government's official web portal to all federal, state and local government web resources and services.